Location: Newark
(30.1000°N, 109.4667°E)
Time: 21:40:51
(UTC+00:00)

Vanguard 1 Rocket - Pass Details

Date: 22 February 2020
Orbit: 650 x 4226 km, 34.3° (Epoch: 05 April)

Event Time Altitude Azimuth Distance (km) Brightness Sun altitude
Exits shadow 21:48:43 34° 306° (NW) 1,148 7.5 -19.5°
Maximum altitude 21:50:28 55° 5° (N) 803 7.1 -19.1°
Drops below altitude 10° 21:54:45 10° 85° (E) 2,055 10.5 -18.2°
Sets 21:57:08 0° 90° (E) 3,055 11.9 -17.7°
